Location: Mount Cross
(36.6390°N, 79.4878°W)
Time: 08:15:19
(UTC+00:00)

Tiros 1 - Pass Details

Date: 31 March 2023
Orbit: 627 x 661 km, 48.4° (Epoch: 02 June)

Event Time Altitude Azimuth Distance (km) Brightness Sun altitude
Exits shadow 07:39:37 15° 63° (ENE) 1,755 9.9 -38.2°
Drops below altitude 10° 07:40:28 10° 61° (ENE) 2,073 10.4 -38.1°
Sets 07:42:51 0° 58° (ENE) 2,990 11.5 -37.7°
